This is the latest recevied weather packets stored in our database for station/object MB7UKY-10. If no packets are shown the sender has not sent any weather packets the latest 10 day(s).
| Time | Temp. | Humidity | Pressure | Rain* | Wind** | Luminosity | Snow |
|---|---|---|---|---|---|---|---|
| 1777583997 | 20° C | 40% | 1017.9 hPa | - | - | - | - |
| 1777583096 | 20° C | 41% | 1017.8 hPa | - | - | - | - |
| 1777582195 | 20.56° C | 41% | 1017.9 hPa | - | - | - | - |
| 1777581295 | 21.11° C | 40% | 1017.8 hPa | - | - | - | - |
| 1777580394 | 21.67° C | 40% | 1017.8 hPa | - | - | - | - |
| 1777579493 | 22.22° C | 40% | 1017.7 hPa | - | - | - | - |
| 1777578592 | 22.22° C | 39% | 1017.7 hPa | - | - | - | - |
| 1777577692 | 22.78° C | 39% | 1017.7 hPa | - | - | - | - |
| 1777576791 | 23.33° C | 39% | 1017.5 hPa | - | - | - | - |
| 1777575890 | 23.89° C | 39% | 1017.4 hPa | - | - | - | - |
| 1777574989 | 24.44° C | 39% | 1017.3 hPa | - | - | - | - |
| 1777574089 | 24.44° C | 39% | 1017.4 hPa | - | - | - | - |
| 1777573188 | 24.44° C | 39% | 1017.4 hPa | - | - | - | - |
| 1777572287 | 25° C | 39% | 1017.6 hPa | - | - | - | - |
| 1777571386 | 25° C | 39% | 1017.6 hPa | - | - | - | - |
| 1777570486 | 25° C | 39% | 1017.6 hPa | - | - | - | - |
| 1777569585 | 24.44° C | 39% | 1017.8 hPa | - | - | - | - |
| 1777568684 | 24.44° C | 40% | 1017.9 hPa | - | - | - | - |
| 1777567783 | 23.89° C | 40% | 1017.8 hPa | - | - | - | - |
| 1777566883 | 23.33° C | 41% | 1017.8 hPa | - | - | - | - |
| 1777565982 | 23.33° C | 41% | 1017.9 hPa | - | - | - | - |
| 1777565081 | 22.78° C | 41% | 1017.8 hPa | - | - | - | - |
| 1777564180 | 22.78° C | 41% | 1018.1 hPa | - | - | - | - |
| 1777563280 | 22.22° C | 41% | 1018.1 hPa | - | - | - | - |
| 1777562378 | 22.22° C | 41% | 1018.1 hPa | - | - | - | - |
* Rain since midnight (hover to see other rain measurements)
** Current wind speed in m/s (hover to see current wind gust speed)